sat.trackr.live / text

‹ back to catalog

STARLINK-34615

NORAD 66321 · 2025-253C

PAYLOAD ACTIVE UNKNOWN

§ Identity

Operator
Country
US
Launch date
2025-11-06
Launch site
AFETR
Launch vehicle
Mass (kg)
RCS (m²)

Purposes: comms

External: N2YO · Heavens-Above · Gunter

§ Orbital elements

Epoch: 2026-05-25T01:14:42.458784Z

Period
94.27 min
Inclination
42.9987°
Eccentricity
0.0001281
Mean motion
15.27599003 rev/d
Perigee alt
482.1 km
Apogee alt
483.9 km
Semi-major
6,861.1 km
B*
7.8970e-4
RAAN
141.1819°
Arg perigee
229.4489°
Mean anomaly
130.6251°
Rev number
3,192

§ Raw data

STARLINK-346151 66321U 25253C   26145.05188031  .00021545  00000+0  78970-3 0  99992 66321  42.9987 141.1819 0001281 229.4489 130.6251 15.27599003 31928

JSON: /api/v1/satellites/66321 · /tle

For live sub-satellite position, see the globe view (requires WebGL).

§ Visibility from observer

Set your observer location to see the next 7 days of passes ≥ 10°. The values pass through the URL so the page stays shareable.

No JS? Fill the form by hand. The geolocation button needs JavaScript.